Weather History for Elkins, WV

Change the Weather History Date:

Thursday, April 25, 2013

  Actual Average Record
Temperature  
Mean Temperature 46 °F 52 °F  
Max Temperature 58 °F 66 °F 88 °F (1925)
Min Temperature 33 °F 39 °F 22 °F (1927)
Degree Days  
Heating Degree Days 19 13  
Month to date heating degree days 334 404  
Since 1 July heating degree days 5508 5505  
Cooling Degree Days 0 0  
Month to date cooling degree days 3 0  
Year to date cooling degree days 3 0  
Moisture  
Dew Point 29 °F    
Average Humidity 56    
Maximum Humidity 89    
Minimum Humidity 23    
Precipitation  
Precipitation 0.02 in 0.13 in 2.12 in (1937)
Month to date precipitation 2.53 3.15  
Year to date precipitation 12.38 13.44  
Snow  
Snow 0.00 in - - ()
Month to date snowfall 0.0  
Since 1 September snowfall 77.5  
Snow Depth 0.00 in    
Sea Level Pressure  
Sea Level Pressure 30.28 in    
Wind  
Wind Speed 5 mph (WNW)    
Max Wind Speed 15 mph    
Max Gust Speed 21 mph    
Visibility 10 miles    
Events Rain    
T = Trace of Precipitation, MM = Missing Value Source: NWS Daily Summary

Daily Weather History Graph

Daily Weather History Graph

Search for Another Location

Airport:

Trip Planner

Search our weather history database for the weather conditions in past years. The results will help you decide how hot, cold, wet, or windy it might be!

Date:

Astronomy

Apr. 25, 2013 Rise Set
Actual Time 6:28 AM EDT 8:06 PM EDT
Civil Twilight 6:00 AM EDT 8:34 PM EDT
Nautical Twilight 5:26 AM EDT 9:09 PM EDT
Astronomical Twilight 4:50 AM EDT 9:45 PM EDT
Moon 8:17 PM EDT (4/25) 6:10 AM EDT (4/25)
Length of Visible Light 14h 34m
Length of Day
13h 37m
Full, 100% of the Moon is Illuminated
Apr 25
Full
Apr 25
Full
May 2
Last Quarter
May 9
New
May 18
First Quarter

Hourly Weather History & Observations

Time (EDT) Temp. Windchill Dew Point Humidity Pressure Visibility Wind Dir Wind Speed Gust Speed Precip Events Conditions
12:51 AM 39.9 °F 36.7 °F 33.1 °F 77% 30.19 in 10.0 mi WNW 4.6 mph - 0.00 in   Overcast
1:51 AM 37.9 °F 35.5 °F 33.1 °F 83% 30.20 in 10.0 mi West 3.5 mph - 0.02 in Rain Light Rain
2:51 AM 37.0 °F 31.0 °F 32.0 °F 82% 30.21 in 10.0 mi WNW 8.1 mph 17.3 mph 0.00 in Rain Light Rain
3:24 AM 37.4 °F 30.8 °F 32.0 °F 81% 30.21 in 9.0 mi WNW 9.2 mph - 0.00 in Rain Light Rain
3:51 AM 36.0 °F 30.3 °F 32.0 °F 86% 30.25 in 10.0 mi NW 6.9 mph - 0.00 in Rain Light Rain
4:00 AM 35.6 °F 29.2 °F 30.2 °F 81% 30.23 in 10.0 mi NW 8.1 mph - 0.00 in   Overcast
4:07 AM 35.6 °F 30.7 °F 30.2 °F 81% 30.23 in 10.0 mi NW 5.8 mph - 0.00 in   Overcast
4:25 AM 35.6 °F 30.7 °F 30.2 °F 81% 30.23 in 10.0 mi NNW 5.8 mph - 0.00 in   Overcast
4:51 AM 36.0 °F 31.1 °F 30.9 °F 82% 30.26 in 10.0 mi NW 5.8 mph - 0.00 in   Overcast
5:51 AM 36.0 °F 32.1 °F 30.9 °F 82% 30.27 in 10.0 mi NNW 4.6 mph - N/A   Overcast
6:49 AM 33.8 °F - 30.2 °F 87% 30.25 in 10.0 mi Calm Calm - N/A   Scattered Clouds
6:51 AM 34.0 °F - 30.0 °F 85% 30.28 in 10.0 mi Calm Calm - N/A   Partly Cloudy
7:51 AM 37.9 °F - 32.0 °F 79% 30.30 in 10.0 mi Calm Calm - N/A   Clear
8:51 AM 39.9 °F 34.5 °F 28.9 °F 65% 30.32 in 10.0 mi NNW 8.1 mph - N/A   Mostly Cloudy
9:16 AM 41.0 °F 37.1 °F 28.4 °F 61% 30.28 in 10.0 mi North 5.8 mph - N/A   Mostly Cloudy
9:51 AM 41.0 °F 39.0 °F 28.9 °F 62% 30.33 in 10.0 mi SW 3.5 mph - N/A   Mostly Cloudy
10:21 AM 42.8 °F - 28.4 °F 57% 30.29 in 10.0 mi Calm Calm - N/A   Mostly Cloudy
10:51 AM 44.1 °F - 28.9 °F 55% 30.33 in 10.0 mi Calm Calm - N/A   Mostly Cloudy
11:51 AM 46.0 °F 44.8 °F 30.0 °F 54% 30.34 in 10.0 mi Variable 3.5 mph - N/A   Mostly Cloudy
12:51 PM 50.0 °F - 30.0 °F 46% 30.33 in 10.0 mi SSW 8.1 mph - N/A   Clear
1:51 PM 51.1 °F - 26.1 °F 38% 30.30 in 10.0 mi Variable 5.8 mph - N/A   Clear
2:51 PM 55.0 °F - 27.0 °F 34% 30.28 in 10.0 mi WNW 4.6 mph - N/A   Clear
3:51 PM 57.9 °F - 24.1 °F 27% 30.26 in 10.0 mi West 9.2 mph 18.4 mph N/A   Clear
4:51 PM 57.0 °F - 21.9 °F 26% 30.25 in 10.0 mi WNW 9.2 mph 16.1 mph N/A   Clear
5:51 PM 57.0 °F - 19.0 °F 23% 30.26 in 10.0 mi West 8.1 mph - N/A   Clear
6:51 PM 55.0 °F - 19.0 °F 24% 30.28 in 10.0 mi West 10.4 mph 20.7 mph N/A   Clear
7:51 PM 52.0 °F - 21.9 °F 31% 30.31 in 10.0 mi NW 9.2 mph - N/A   Partly Cloudy
8:51 PM 45.0 °F 43.5 °F 28.0 °F 52% 30.34 in 10.0 mi Variable 3.5 mph - N/A   Clear
9:51 PM 39.9 °F - 30.0 °F 68% 30.37 in 10.0 mi Calm Calm - N/A   Clear
10:51 PM 41.0 °F - 28.9 °F 62% 30.38 in 10.0 mi Calm Calm - N/A   Scattered Clouds
11:51 PM 37.0 °F - 28.9 °F 73% 30.39 in 10.0 mi Calm Calm - N/A   Clear